Location: Ingoldesthorpe
(52.8667°N, 0.5167°E)
Time: 15:16:25
(UTC+00:00)

CZ-4C R/B - Pass Details

Date: 19 May 2025
Orbit: 425 x 537 km, 98.0° (Epoch: 17 June)

Event Time Altitude Azimuth Distance (km) Brightness Sun altitude
Rises 22:47:02 0° 13° (NNE) 2,624 7.9 -15.7°
Reaches altitude 10° 22:49:10 10° 11° (N) 1,715 6.8 -15.8°
Maximum altitude 22:52:51 71° 288° (WNW) 519 3.2 -15.9°
Enters shadow 22:54:42 26° 209° (SSW) 972 4.2 -16.0°
